GFSSW_925_rhum_273.txt.gz
RH
60 55 47 43 42 40 40 38 36 33 29 25 20 16 15 14 9 16 18 9 13 13 15 15 16 19 21 34 21 28 61 63 39 32 34 24 30 26 34 27 28 28 33 32 29
62 57 49 44 41 40 38 37 35 32 28 22 19 16 14 14 20 24 6 10 10 9 14 14 15 14 20 29 27 46 39 25 20 23 27 26 30 33 28 24 30 31 30 28 28
58 56 52 45 41 39 38 36 33 31 24 18 16 15 14 14 47 10 7 10 10 7 10 14 13 14 20 21 28 33 28 20 35 30 20 25 31 30 26 32 32 36 32 29 30
51 51 51 47 41 39 37 36 33 29 20 17 15 14 13 28 21 11 9 10 9 7 15 13 14 16 24 25 22 30 25 19 36 34 30 24 22 24 25 26 27 28 28 29 31
48 46 46 45 41 38 37 35 31 26 22 19 15 13 17 41 16 10 10 9 7 11 14 14 15 17 27 29 27 30 29 25 28 30 20 20 27 24 24 22 24 24 26 29 30
46 42 43 43 41 38 37 34 29 23 20 15 14 13 39 22 8 10 8 6 9 13 12 13 13 18 26 29 35 33 29 31 42 25 23 24 30 24 24 22 23 24 27 29 27
43 40 39 40 41 39 35 32 23 21 15 13 13 23 34 22 10 9 6 7 10 11 13 11 10 19 22 43 26 33 37 34 31 28 27 25 31 33 23 21 24 25 28 28 28
40 37 36 36 38 38 33 26 20 18 13 12 13 47 36 5 9 9 7 8 10 11 10 9 10 26 28 29 34 37 45 65 36 34 32 36 44 31 23 25 28 27 28 28 32
43 37 34 33 35 35 31 21 19 15 15 14 25 45 24 9 9 8 6 8 8 8 9 10 10 19 25 29 40 42 54 53 45 36 40 66 70 37 28 29 35 30 30 30 37
40 41 34 30 31 34 26 20 22 20 29 43 36 28 22 11 6 6 6 7 8 10 11 12 23 29 30 42 56 50 61 56 58 34 68 62 65 34 41 30 33 38 36 35 39
39 42 36 27 27 32 25 28 31 31 25 19 16 15 9 10 6 5 6 6 6 10 15 15 25 31 33 32 32 36 47 50 49 37 43 40 58 57 60 59 35 43 39 40 45
39 40 37 25 25 26 30 38 15 14 21 15 12 10 8 6 7 6 5 8 9 11 12 16 23 21 20 19 30 28 39 42 29 32 25 35 54 59 68 60 40 34 38 41 50
42 40 39 25 22 29 31 24 13 12 19 13 11 9 6 5 7 7 6 8 9 11 11 18 21 20 18 23 27 26 30 24 24 21 28 29 45 46 44 36 40 31 32 34 40
45 39 42 30 26 34 31 15 12 13 26 15 12 8 4 5 7 6 5 7 7 10 11 14 17 17 17 17 25 46 25 21 23 28 37 29 58 65 58 48 37 36 32 32 38
45 40 43 46 50 50 23 19 14 13 33 8 8 4 5 6 7 7 5 6 8 11 12 14 18 18 19 15 22 28 30 24 24 27 30 49 74 79 52 51 45 36 31 31 35
43 41 52 44 49 27 25 22 18 26 29 9 6 5 5 5 6 6 6 6 7 10 10 12 10 15 16 9 9 12 13 30 38 37 43 40 58 74 69 46 46 34 29 28 32
42 34 48 62 39 23 23 23 30 30 7 7 8 5 6 7 6 8 9 9 12 13 17 14 12 12 11 12 10 13 16 42 54 69 55 40 40 48 42 39 38 36 26 28 32
41 33 27 28 28 32 30 32 36 14 11 6 7 7 7 6 7 8 10 11 9 11 15 19 19 13 13 13 14 14 15 37 53 55 41 37 43 39 28 26 34 20 23 28 33
50 41 36 26 33 34 36 36 27 16 6 7 7 8 8 6 5 7 10 10 9 10 14 15 17 10 10 11 14 15 19 13 26 36 50 37 28 21 25 34 38 23 24 26 32
66 59 38 17 30 30 37 33 18 10 9 8 9 7 8 7 7 8 11 9 8 7 8 10 14 12 11 10 11 11 12 18 23 48 47 43 44 39 33 49 52 29 26 31 33
64 46 25 21 26 33 37 24 13 10 9 10 10 9 8 7 7 8 9 7 7 7 7 8 11 13 9 12 12 12 13 12 23 45 56 53 67 37 30 34 34 26 26 30 36
43 46 21 21 35 33 28 19 13 10 8 8 9 10 11 9 8 8 9 8 6 6 8 9 9 15 12 7 7 7 9 11 26 21 34 34 36 20 18 18 18 24 26 30 35
57 36 22 21 39 30 21 15 13 11 10 8 9 8 8 12 11 9 8 6 6 8 13 8 13 17 16 11 7 8 8 6 9 14 18 21 29 16 15 15 20 24 31 35 37
60 46 31 27 27 26 21 16 14 9 9 7 9 8 8 12 12 11 8 6 7 9 22 10 10 14 18 16 10 11 9 8 8 13 15 17 19 15 17 22 15 35 48 53 38
55 40 39 50 33 29 22 19 17 12 8 8 12 10 10 13 15 10 9 9 8 16 7 8 11 13 12 8 7 8 8 8 10 9 11 12 15 17 22 25 18 17 36 39 39
61 50 45 51 41 43 32 21 19 16 11 10 12 9 10 16 15 15 11 15 13 10 9 9 14 14 15 10 10 10 9 8 7 7 9 7 9 14 23 21 21 17 27 38 39
54 48 52 53 46 40 26 18 17 13 11 9 7 11 12 13 10 9 9 12 13 16 14 13 13 17 19 16 12 14 10 9 7 7 8 12 21 14 17 19 21 21 18 31 37

GFSSW_925_rhum_276.txt.gz
RH
49 46 45 44 42 40 39 38 36 33 29 24 18 16 14 12 8 12 18 7 12 11 14 15 15 20 26 30 28 37 54 56 46 36 34 29 31 33 30 38 35 33 38 40 48
48 46 45 44 43 40 38 38 37 34 28 21 16 14 13 12 17 32 4 7 9 10 8 15 16 16 27 31 36 46 54 42 32 30 32 29 31 35 38 39 39 37 34 40 48
45 43 43 43 43 41 38 38 40 35 28 20 15 13 13 13 42 13 5 7 10 9 7 15 14 16 21 27 35 41 40 34 21 29 26 29 32 31 36 44 39 41 37 39 42
43 41 40 40 41 40 39 39 38 34 26 21 16 12 12 27 11 13 8 8 10 10 9 15 16 20 28 31 28 35 32 30 33 30 31 33 32 31 34 37 33 33 33 35 41
40 39 37 36 38 39 40 37 36 32 24 19 15 12 23 34 20 9 10 9 10 7 14 15 15 26 32 30 30 37 32 29 29 35 35 28 31 32 37 32 30 30 32 35 35
40 38 36 34 34 36 37 36 32 26 22 15 14 14 36 12 5 10 9 10 8 10 14 14 20 21 27 25 30 33 34 30 32 35 40 38 34 29 33 30 30 31 34 34 35
38 39 37 33 31 32 34 32 28 22 20 14 14 32 40 14 13 12 8 8 7 12 13 13 12 21 25 30 28 34 39 39 41 38 49 36 43 46 31 28 30 31 32 32 29
42 38 39 36 31 29 30 27 22 21 15 13 16 45 24 3 5 7 8 7 9 11 11 11 17 29 29 31 34 38 45 56 43 40 43 42 55 52 38 28 32 30 30 31 34
47 39 38 37 31 26 26 22 20 19 17 17 34 43 18 12 10 8 10 8 8 8 9 10 18 30 28 38 43 44 43 55 48 40 38 49 62 51 47 30 35 31 34 33 36
47 43 36 35 29 25 22 20 25 23 34 42 42 32 19 13 9 8 8 7 9 9 11 12 28 32 35 47 54 42 52 44 55 47 41 59 60 52 46 47 52 42 37 38 39
46 44 36 32 25 26 21 27 30 28 33 16 16 23 13 11 8 7 7 7 7 10 15 15 25 28 30 33 36 38 48 46 41 37 48 53 48 48 52 45 49 54 57 51 45
48 42 36 32 24 25 32 41 29 16 22 22 21 20 14 10 10 6 6 8 9 11 12 16 24 24 21 31 33 39 48 48 36 35 40 56 60 46 50 52 44 48 62 53 58
49 42 38 29 23 36 37 28 25 19 23 19 17 16 11 9 10 8 8 9 10 11 12 18 16 21 21 26 31 31 45 40 36 36 38 50 56 56 46 52 44 47 45 43 50
48 44 39 33 29 31 36 22 23 21 31 22 14 12 9 6 6 6 7 8 9 11 12 14 12 20 24 28 28 31 26 27 26 35 42 40 44 61 52 50 43 37 41 42 44
47 45 41 47 49 49 21 24 22 18 23 11 14 8 6 6 7 7 6 7 10 9 12 14 19 22 23 23 23 28 23 23 25 34 40 44 50 55 51 45 34 39 37 36 43
45 43 46 50 52 20 26 27 22 28 31 13 7 7 7 6 6 7 7 6 7 8 10 14 12 16 24 20 18 23 28 31 46 39 41 39 48 52 47 31 32 33 35 34 42
45 39 43 51 35 21 30 32 32 36 16 8 8 7 7 7 7 7 9 9 11 13 14 13 14 15 18 21 20 21 33 44 50 61 41 45 38 40 32 33 37 35 33 34 39
47 33 29 28 21 28 38 33 34 21 16 9 8 7 8 8 7 10 11 12 10 13 18 17 20 21 20 19 20 18 24 44 42 52 43 41 43 34 30 30 33 30 31 32 40
51 36 46 19 22 40 43 43 34 27 11 12 9 8 8 7 7 9 12 13 10 12 14 18 18 11 11 13 14 16 19 22 41 44 44 43 35 27 31 31 31 30 34 39 42
58 63 55 30 25 38 47 49 30 16 14 14 12 10 11 9 7 8 12 11 10 10 12 12 15 10 10 12 14 15 16 17 32 42 47 42 48 44 31 35 29 27 34 39 42
61 68 33 29 33 47 53 47 24 15 12 13 13 11 9 8 8 9 10 9 9 8 11 12 12 11 11 14 15 11 14 19 29 43 52 45 52 43 32 37 39 32 30 38 44
73 56 28 34 44 52 46 30 26 19 15 15 12 10 10 10 9 9 9 9 8 8 9 10 15 14 11 10 9 10 10 16 22 20 44 43 40 22 30 31 33 35 35 37 42
91 69 23 25 50 50 40 28 21 20 17 14 14 11 9 10 12 10 9 8 8 10 11 11 15 18 14 12 10 8 8 12 19 21 20 25 33 21 20 26 30 35 39 47 47
91 76 54 47 44 41 37 33 25 15 14 12 12 10 10 10 12 12 9 8 8 11 27 20 15 15 17 13 12 12 10 8 11 15 16 22 17 14 21 34 29 37 39 47 42
89 71 56 74 64 62 54 41 40 29 17 12 10 9 11 11 14 13 10 10 10 13 8 10 12 11 14 13 10 10 9 10 10 10 11 11 19 16 23 39 38 35 37 36 46
84 80 75 74 65 56 56 53 39 28 21 21 11 10 9 12 13 15 11 13 11 9 9 12 10 11 10 12 14 10 11 10 10 9 9 14 14 15 27 28 39 43 42 40 36
69 63 81 78 68 63 60 60 53 30 19 17 16 10 10 11 12 13 12 12 13 12 14 13 13 18 12 14 16 16 15 24 38 38 32 46 36 40 48 44 42 41 36 40 38

GFSSW_925_rhum_279.txt.gz
RH
46 44 44 45 44 43 40 38 36 37 30 25 19 15 13 11 8 12 16 7 11 11 11 14 16 23 27 30 32 39 57 49 42 40 38 34 41 38 35 42 41 38 52 55 62
43 42 41 41 42 42 40 39 37 37 29 23 18 14 12 12 19 35 4 5 7 11 9 15 17 16 30 36 36 46 51 45 36 32 33 35 39 42 43 42 44 46 50 56 60
40 39 38 37 37 38 40 40 38 35 29 21 18 14 12 14 39 8 6 4 9 9 9 14 15 17 29 30 35 38 43 38 34 38 30 33 38 37 44 49 42 59 60 56 63
40 40 39 36 35 35 36 36 37 33 27 21 16 12 12 31 9 12 11 6 8 10 14 15 18 26 32 32 30 37 35 32 34 35 33 35 34 41 40 43 36 47 51 57 63
44 39 39 39 37 33 31 32 32 30 24 21 13 12 23 26 14 8 10 7 6 9 15 14 20 26 30 29 34 43 36 33 32 34 32 32 36 41 42 36 36 42 46 53 53
48 45 39 39 39 34 28 29 28 26 23 19 14 15 36 6 5 11 10 9 10 12 15 14 20 22 28 28 31 38 36 36 37 40 41 35 39 38 40 36 36 38 46 48 48
49 46 43 38 35 32 26 25 25 23 22 14 16 36 34 8 13 11 11 10 9 12 15 14 15 23 24 34 34 38 40 40 42 45 40 37 46 46 38 35 37 37 39 41 41
50 46 43 39 32 29 25 22 22 22 16 14 19 46 20 4 9 7 9 7 8 10 12 12 18 29 29 32 35 40 46 52 41 45 43 40 53 46 38 37 39 37 36 36 41
52 47 42 39 33 26 22 21 22 19 18 17 42 45 16 10 12 7 9 8 9 10 11 13 24 29 30 38 42 45 50 48 48 44 41 42 56 48 44 39 39 36 37 36 42
51 47 42 37 31 27 21 27 29 31 44 46 49 33 16 12 10 9 9 9 9 10 12 18 32 34 39 42 41 42 50 49 50 42 40 43 50 50 48 49 38 42 38 41 41
51 48 42 32 28 24 27 36 32 29 43 11 12 21 17 10 10 8 8 9 8 11 13 19 28 33 31 34 34 42 40 32 40 38 46 44 40 45 50 50 54 56 53 49 45
51 48 43 29 28 32 26 40 32 29 38 23 23 24 18 12 11 9 7 8 10 12 12 16 20 22 24 29 31 41 46 46 39 36 43 52 51 42 50 50 48 55 58 55 52
52 48 44 29 32 29 39 32 29 36 28 21 22 19 15 11 11 11 8 9 10 11 12 15 15 23 29 32 34 41 43 45 35 39 42 58 57 55 46 51 50 47 50 50 49
52 48 48 33 29 36 32 25 27 31 30 17 16 12 10 8 7 8 8 9 10 12 13 13 12 13 26 31 29 32 33 33 37 40 49 40 57 46 51 52 53 46 50 48 46
52 50 54 50 49 53 21 23 26 18 20 11 15 9 10 7 7 7 7 8 11 11 12 13 17 20 26 27 27 28 27 30 33 38 40 46 50 50 52 48 44 45 42 46 43
53 50 59 53 52 25 23 29 20 26 23 14 12 10 8 7 6 8 8 7 9 9 10 12 11 16 22 21 24 25 30 36 45 42 39 39 43 41 50 39 32 37 40 38 43
55 44 53 52 40 24 28 29 29 31 14 11 10 8 8 8 7 8 10 10 12 14 12 13 13 16 21 28 25 26 30 38 33 47 37 48 42 39 28 35 33 38 40 37 42
54 40 31 28 25 27 34 33 30 15 20 13 8 8 10 8 8 9 12 13 10 14 19 18 18 20 21 24 30 29 30 35 30 43 38 42 43 30 29 31 32 33 33 36 47
47 41 43 26 25 35 37 44 32 26 18 16 10 8 8 8 8 11 12 12 12 14 14 21 18 13 14 18 20 25 23 24 49 51 45 44 39 30 31 30 32 30 35 41 36
56 64 54 37 32 37 44 44 35 24 15 14 12 9 10 9 8 12 14 12 11 12 11 12 15 12 10 14 14 17 19 23 36 44 44 46 44 40 29 31 31 33 33 46 50
62 64 36 36 37 45 44 48 33 21 16 18 14 14 10 9 9 10 12 11 10 11 11 14 13 12 10 13 18 15 18 27 35 42 47 40 46 41 33 32 29 32 33 40 52
82 42 43 44 49 65 51 42 26 22 18 16 16 16 11 10 9 9 9 10 10 11 12 12 16 15 12 11 11 10 13 21 20 20 46 40 34 23 31 28 32 29 33 39 51
92 87 35 33 56 56 45 34 26 26 22 16 15 13 11 10 11 10 10 8 10 10 12 13 16 17 14 13 11 8 10 18 21 28 46 35 26 22 28 30 35 33 37 42 53
91 68 64 58 56 44 45 41 33 26 21 16 15 13 12 10 12 10 11 8 10 10 39 21 18 16 17 13 13 12 11 12 13 17 20 25 18 14 21 30 32 37 38 50 57
92 71 70 80 69 65 60 52 51 45 27 20 14 14 10 11 12 14 11 10 9 41 11 12 13 13 13 12 13 12 11 11 11 12 12 11 20 15 20 27 40 32 38 53 57
87 93 85 85 77 65 65 57 59 52 33 30 21 15 12 11 11 12 14 12 10 9 10 12 14 11 11 11 16 13 22 25 25 16 16 15 18 47 34 44 45 40 45 51 53
80 76 89 82 80 69 70 67 64 60 55 29 22 22 24 13 12 14 15 14 11 11 14 13 16 16 14 13 15 19 28 44 46 47 40 50 48 53 51 49 50 35 41 42 43

GFSSW_925_rhum_285.txt.gz
RH
47 44 42 38 36 35 34 31 30 31 29 26 23 19 14 10 8 13 9 8 8 12 16 30 48 42 39 29 31 32 36 41 37 35 41 38 42 36 36 41 42 44 44 44 68
50 48 46 42 39 34 31 31 28 28 26 25 22 19 13 11 21 23 5 8 12 13 14 20 17 30 26 28 30 33 36 35 32 31 37 37 37 40 40 42 54 56 54 59 64
52 47 45 42 38 36 33 30 29 26 24 24 20 17 12 16 23 4 5 7 10 11 10 16 16 23 24 24 29 35 36 32 33 30 32 37 39 36 37 43 45 50 54 52 59
54 49 40 39 37 36 34 31 26 24 22 23 19 14 12 27 11 9 13 5 7 10 12 16 18 23 26 27 28 34 33 32 33 33 34 38 36 38 35 35 35 42 47 54 56
52 47 43 38 35 32 31 30 24 21 21 21 19 13 18 11 6 6 11 6 9 11 14 16 20 24 26 27 28 31 32 33 32 31 32 35 38 37 39 36 40 44 49 51 50
52 48 43 37 33 31 30 27 22 20 20 21 18 13 30 4 4 13 14 6 11 11 15 14 19 21 25 28 29 33 33 34 35 34 34 36 40 36 41 40 46 48 48 47 49
52 48 42 39 33 30 28 24 21 20 21 21 14 24 21 4 16 14 12 10 10 14 14 14 20 18 23 30 30 30 33 33 36 36 37 33 44 38 39 41 46 47 47 46 47
55 50 41 40 35 31 26 24 28 23 21 14 17 29 9 4 6 10 11 10 10 12 15 21 20 24 27 29 28 30 32 36 34 35 37 33 43 43 39 43 46 46 47 48 50
57 50 42 37 34 31 26 36 27 19 17 24 36 28 6 8 12 10 9 8 11 12 17 21 22 26 26 28 29 31 31 36 32 34 36 35 43 40 38 40 44 45 48 46 49
57 50 41 37 34 32 32 38 41 41 37 44 50 28 13 11 12 11 10 10 10 11 12 17 22 23 26 23 30 27 32 36 36 39 35 40 38 39 40 38 40 42 42 45 42
55 47 38 36 33 33 35 44 32 25 40 14 9 13 13 13 11 10 10 9 10 12 15 19 18 19 20 24 27 28 30 31 31 35 34 36 40 41 38 38 39 42 39 40 40
50 39 34 37 35 36 37 31 33 35 32 28 30 25 19 17 10 9 10 9 11 15 14 16 19 18 23 27 27 29 30 28 31 36 33 44 38 41 42 40 36 36 38 39 38
51 39 38 37 34 35 42 37 35 42 32 20 21 19 13 14 10 10 8 10 11 13 13 17 17 17 23 28 27 26 24 30 33 32 38 33 44 47 42 40 38 36 31 30 31
66 64 62 42 37 42 39 41 35 42 20 15 17 13 12 11 9 9 8 8 10 12 12 14 13 15 18 20 23 21 26 30 31 29 32 36 28 40 43 43 40 35 34 32 29
75 74 74 64 57 50 27 30 40 34 10 10 13 11 11 8 8 9 8 9 11 12 12 15 14 15 15 14 22 20 25 28 32 32 32 33 34 29 43 46 41 37 33 32 30
80 76 64 61 70 28 28 32 31 22 17 13 12 12 9 7 8 9 8 8 10 10 10 12 10 11 10 19 21 25 22 25 29 29 26 30 34 25 27 28 29 30 30 31 30
75 60 58 71 38 28 27 25 22 24 14 15 12 11 9 9 8 9 10 10 12 14 14 11 10 9 13 13 23 22 21 26 26 22 23 34 33 23 21 24 25 24 26 26 28
61 46 44 43 37 32 32 23 27 15 16 14 9 10 9 8 8 10 11 11 12 11 12 12 14 11 17 14 19 24 21 25 29 26 25 34 24 21 21 22 24 25 24 27 28
57 50 52 40 44 42 29 25 19 20 19 16 9 11 10 8 8 10 11 10 10 10 12 14 15 12 19 21 19 24 26 20 27 36 29 25 24 21 22 24 23 24 26 24 25
69 68 51 49 46 38 27 25 25 24 20 16 12 11 10 9 9 10 12 10 10 10 10 13 16 11 13 14 16 19 20 22 25 27 20 18 25 17 20 21 24 25 25 26 32
71 41 52 49 43 32 29 26 26 22 22 16 14 13 10 9 9 10 11 11 9 10 10 11 11 12 10 14 14 20 20 23 22 23 20 16 12 23 23 21 20 20 22 24 33
72 42 50 49 35 47 31 31 28 21 20 17 16 16 10 10 10 11 11 11 9 10 10 10 10 13 10 10 13 16 17 16 20 27 29 23 11 17 20 19 24 23 22 25 38
72 61 47 45 34 38 39 31 27 26 25 22 16 14 13 12 11 10 10 8 10 10 11 10 11 13 11 10 11 10 15 15 16 18 30 16 10 15 22 26 24 23 25 30 38
69 46 50 47 52 39 41 40 35 33 30 28 21 16 14 13 13 13 10 9 10 9 34 13 10 11 12 12 12 13 12 15 11 14 23 18 12 12 30 33 29 32 29 30 39
72 70 71 56 55 54 48 48 46 42 42 36 20 16 19 14 13 14 13 11 12 42 14 8 10 13 11 11 11 10 11 13 11 12 10 12 14 32 42 45 41 38 35 36 39
74 74 65 63 70 62 64 56 52 52 51 36 28 40 28 23 20 19 15 14 13 21 13 10 13 14 12 11 12 18 17 11 11 12 18 16 37 44 52 47 42 42 40 40 41
86 82 77 70 68 61 65 65 61 57 50 48 49 47 37 26 38 30 14 12 13 14 13 12 15 16 14 13 18 20 25 23 32 20 23 26 38 47 51 58 64 55 54 59 59

GFSSW_925_rhum_288.txt.gz
RH
49 46 40 37 39 37 32 29 28 26 25 23 22 18 15 10 6 15 9 9 10 13 26 32 31 27 26 21 22 21 24 26 26 26 35 31 32 30 27 31 33 32 27 32 43
48 45 43 37 36 35 33 29 27 25 24 22 22 18 13 11 34 9 7 6 10 14 18 20 16 22 18 19 21 22 22 26 24 23 27 30 30 32 32 34 38 36 32 37 41
51 44 42 39 34 33 31 29 27 25 22 20 20 18 12 13 18 8 6 6 13 13 10 12 14 18 18 17 21 24 26 24 24 22 23 28 30 27 29 31 32 36 36 34 36
51 48 43 40 35 32 30 27 25 23 20 19 18 17 11 44 15 10 11 6 12 18 10 13 14 17 18 20 20 25 25 24 26 24 25 28 28 28 28 26 25 28 31 34 35
53 50 45 39 36 33 29 26 23 20 19 18 18 14 24 11 6 8 10 8 12 13 11 13 15 16 19 20 20 24 26 25 25 24 25 26 29 28 31 25 26 28 31 33 32
56 52 47 40 36 32 28 25 21 21 20 18 18 12 26 4 7 15 21 13 12 10 12 12 14 14 16 19 22 23 25 27 26 26 27 28 29 27 31 26 30 32 32 31 32
59 56 48 43 35 32 28 24 23 27 21 19 14 26 13 3 14 14 13 9 10 11 11 12 14 14 15 22 21 22 27 27 28 28 28 25 34 30 28 28 31 31 31 30 32
61 56 48 42 34 32 27 28 30 25 21 14 15 40 6 4 9 10 10 9 10 12 14 14 14 15 17 19 21 21 21 29 30 27 29 28 36 31 28 29 31 29 30 31 33
63 55 48 39 34 32 27 32 29 18 15 16 39 20 3 6 7 8 9 9 9 12 13 17 14 15 18 18 19 19 22 25 30 26 29 29 31 30 27 29 30 29 30 30 34
59 54 46 35 31 31 27 36 37 39 41 49 37 19 7 7 8 9 9 9 9 11 12 12 12 14 15 14 24 20 21 24 25 28 27 30 29 30 28 29 30 30 30 30 29
50 47 40 30 31 31 30 40 29 26 28 8 5 8 9 9 10 8 8 8 9 11 14 13 14 16 15 16 17 19 20 20 24 25 26 26 26 28 28 27 29 30 29 32 31
53 47 41 28 32 31 37 22 26 29 19 12 14 14 11 11 9 8 8 9 12 14 12 14 16 14 13 15 16 17 17 21 24 25 26 27 27 26 29 28 27 29 29 30 29
71 64 60 28 31 36 32 26 30 32 24 14 11 8 8 10 9 8 8 8 12 13 13 14 13 13 14 15 14 14 17 20 23 23 25 22 32 33 30 28 27 25 24 24 26
78 75 73 29 38 39 27 36 30 35 16 11 10 7 9 8 9 7 8 8 11 12 12 12 12 14 14 14 12 15 17 20 20 18 20 20 23 29 31 32 30 28 26 24 23
80 78 71 64 55 31 27 29 33 29 10 6 8 9 7 9 8 9 7 8 11 11 11 12 12 13 14 12 11 16 17 18 19 17 18 20 15 25 29 32 28 27 24 21 21
77 72 61 66 65 38 35 31 30 20 10 9 8 9 9 8 7 7 8 7 8 10 10 10 10 11 10 12 12 14 17 17 15 15 15 20 19 15 18 18 20 21 22 21 19
73 63 66 74 26 38 35 24 18 13 9 10 8 8 7 8 7 7 9 9 10 14 13 11 11 9 9 11 14 16 14 15 16 14 16 17 17 16 14 16 16 17 19 19 20
62 56 59 45 50 44 27 23 18 8 8 8 7 7 7 7 7 7 7 8 7 8 9 12 14 10 9 12 12 15 13 15 20 16 14 19 16 16 15 16 16 17 17 18 18
57 51 47 41 53 49 26 23 12 9 12 9 8 8 8 7 7 8 7 6 7 7 9 10 11 9 10 12 12 17 16 12 13 12 12 12 12 13 14 15 14 15 16 17 18
73 42 28 45 50 34 24 19 13 15 13 11 7 7 9 8 8 8 8 6 7 6 6 9 13 10 13 14 14 15 14 16 14 17 13 10 11 14 13 15 16 16 16 17 18
58 27 41 48 40 24 21 14 13 14 14 11 8 8 7 8 8 8 8 7 6 7 7 9 12 12 13 16 14 16 14 14 12 13 13 11 12 12 18 16 15 14 16 16 18
41 28 41 44 27 16 15 16 25 13 11 10 11 8 7 6 7 7 7 7 6 5 8 8 11 13 11 8 9 10 11 11 15 20 12 10 12 12 16 15 16 15 17 17 23
37 35 37 37 22 19 18 16 15 14 12 11 11 10 9 7 8 7 7 6 7 6 8 8 10 14 12 8 8 10 12 11 10 9 14 12 11 12 16 17 19 17 19 22 23
44 34 33 30 28 17 17 15 15 19 17 15 13 10 10 9 7 8 8 6 7 6 20 13 10 12 13 10 9 12 12 11 10 11 12 9 8 8 18 21 23 23 21 21 26
40 43 45 33 29 22 18 18 16 21 20 21 15 12 13 9 8 9 7 8 8 28 8 8 12 11 10 8 8 10 9 8 10 8 9 9 8 15 27 28 30 25 25 26 27
47 48 41 40 42 34 44 26 21 23 24 18 17 22 20 12 12 11 8 8 9 12 9 6 11 10 12 8 7 8 8 8 8 8 9 8 13 27 31 29 29 30 33 36 36
55 53 50 62 37 32 28 33 32 34 29 30 31 27 20 19 26 24 19 10 9 10 8 7 8 12 14 9 9 12 10 8 9 8 8 11 18 28 34 36 35 36 39 41 42

GFSSW_925_rhum_291.txt.gz
RH
50 45 41 37 36 33 30 29 27 25 22 20 18 18 15 11 6 19 12 13 14 13 26 28 24 20 20 16 15 28 22 20 21 23 27 22 25 22 20 24 25 21 23 27 31
50 47 44 39 36 33 31 28 26 24 21 18 17 17 16 11 25 10 10 7 10 13 25 18 15 16 17 15 14 24 18 22 18 18 23 23 24 23 24 26 28 27 25 28 30
52 51 46 41 37 33 31 28 25 22 19 17 17 16 14 11 17 11 11 7 11 13 18 10 12 14 16 13 15 16 22 19 18 18 18 22 24 20 21 27 26 29 27 27 28
57 54 49 44 38 33 30 28 25 21 18 17 16 15 12 34 16 14 7 7 13 19 14 10 12 15 15 17 15 20 18 19 20 19 19 22 21 21 21 22 22 23 24 25 26
60 55 52 46 38 32 30 28 24 20 19 19 17 16 25 12 9 11 9 7 15 14 10 11 13 14 15 15 16 19 20 19 19 19 20 20 21 24 22 20 21 22 23 25 24
63 58 52 46 40 32 29 27 24 24 25 20 17 14 28 9 6 9 12 18 10 11 10 10 11 11 13 15 18 18 20 21 20 21 21 22 23 21 22 20 23 24 25 24 24
62 59 52 47 39 30 28 26 26 27 24 19 17 26 14 6 7 9 13 13 10 11 10 10 11 12 12 16 15 18 23 22 22 22 23 21 27 25 22 20 24 24 24 24 24
62 57 52 45 39 29 27 27 28 20 19 16 11 32 9 3 4 9 9 10 10 10 11 11 11 11 12 14 16 17 18 26 23 22 22 34 37 26 22 22 24 24 24 26 26
57 52 48 44 36 27 26 26 29 20 15 13 31 20 6 3 4 8 9 9 10 10 11 12 11 12 13 61 26 25 20 21 26 21 22 25 30 25 22 22 25 24 25 24 28
49 47 42 40 33 26 24 34 36 32 39 35 22 15 6 3 4 7 8 9 10 10 11 11 11 13 12 37 25 16 18 18 21 21 22 25 25 25 23 22 24 23 24 25 26
58 60 48 37 28 26 27 29 28 26 21 6 5 5 3 4 7 8 9 8 9 10 13 10 12 23 12 12 13 13 17 16 17 18 21 21 22 26 23 23 25 24 24 25 24
74 72 57 34 25 25 36 23 19 20 18 7 7 4 7 7 7 7 9 10 11 13 11 11 14 12 11 12 12 12 15 17 17 17 20 20 21 22 24 23 22 24 24 26 25
79 74 64 29 23 30 24 22 21 20 18 8 5 6 6 7 7 7 8 9 10 12 11 12 12 11 11 11 12 12 13 15 17 19 16 19 24 24 23 22 21 21 21 22 23
78 74 68 27 34 27 19 24 21 21 16 8 7 5 4 6 7 6 7 8 9 11 10 11 10 12 12 11 10 20 11 13 14 15 17 15 25 27 25 25 24 22 20 19 20
74 72 64 60 45 22 21 22 21 21 12 5 5 3 5 7 6 6 6 7 9 10 10 11 12 12 12 12 9 12 10 12 13 14 11 14 13 19 22 23 22 21 18 17 17
73 70 62 38 56 28 24 21 22 23 9 5 4 5 5 6 6 6 7 7 7 9 9 10 8 10 10 10 10 9 10 11 11 15 14 13 12 19 17 16 16 16 17 16 15
69 62 71 62 23 24 23 19 24 14 5 6 6 5 5 7 7 7 8 9 9 12 12 11 10 9 8 10 9 9 14 30 29 13 14 11 14 12 11 11 12 14 15 14 13
62 50 52 47 26 29 23 23 27 8 6 5 5 4 6 6 7 7 8 8 7 8 10 13 13 10 9 10 11 10 12 18 23 17 12 12 17 14 10 10 11 11 11 12 12
52 40 38 32 37 31 23 27 19 6 5 5 4 6 5 5 6 6 7 7 6 6 9 10 11 8 8 9 10 11 13 8 12 9 11 11 12 11 11 11 10 10 11 11 11
75 31 22 22 29 25 22 25 10 9 7 6 6 5 6 6 6 6 6 6 5 5 5 7 11 7 8 10 10 13 24 16 24 14 13 11 14 14 13 12 11 11 12 12 11
63 26 19 26 28 21 23 19 11 9 10 8 6 5 5 6 6 6 6 4 4 5 6 6 8 10 10 13 12 12 12 17 11 9 11 11 14 11 11 10 11 10 11 11 13
35 22 29 25 26 15 18 14 21 9 9 8 8 5 5 6 6 6 6 5 4 4 7 6 7 12 11 10 10 8 9 9 21 40 9 10 12 8 9 9 9 10 11 13 14
35 23 28 24 20 13 12 12 10 10 9 9 8 6 4 6 8 6 6 4 4 5 6 7 10 13 11 10 9 8 8 8 10 14 11 11 12 9 10 13 14 12 15 17 18
37 25 24 23 15 16 12 13 13 10 10 10 8 7 6 6 5 7 6 5 5 4 20 10 8 10 12 10 8 10 9 8 8 9 10 8 10 11 11 12 15 16 16 17 19
33 29 26 22 17 16 11 12 11 14 12 12 12 8 8 8 6 6 6 6 6 17 7 7 10 9 10 8 8 8 9 9 9 9 8 8 8 10 14 15 17 17 19 21 23
39 36 28 27 23 16 25 12 9 11 11 13 12 9 8 7 6 8 6 7 8 7 6 7 12 10 11 8 7 8 8 7 7 7 7 7 11 14 18 18 20 24 29 33 36
37 34 38 32 24 23 18 17 12 11 15 17 16 16 12 17 18 15 8 6 6 8 7 7 9 11 14 9 8 10 8 7 7 7 7 8 12 19 22 24 26 29 32 36 38

GFSSW_925_rhum_297.txt.gz
RH
52 47 45 41 38 34 31 29 27 25 23 20 16 16 15 14 5 12 21 12 14 18 23 50 52 59 53 67 59 51 61 35 28 26 26 21 24 21 20 28 29 29 34 32 28
52 48 45 42 39 35 32 30 26 25 22 20 18 16 16 15 16 21 9 11 12 10 15 30 34 38 48 52 41 48 41 27 24 22 23 22 24 25 29 30 32 34 31 30 28
52 48 44 40 39 35 32 30 26 24 22 22 22 18 15 14 40 12 12 11 11 11 13 18 26 26 43 46 34 37 32 21 20 20 19 21 22 23 30 36 32 35 33 31 30
61 54 46 37 35 34 32 29 26 24 22 25 23 19 15 21 19 15 13 12 10 12 18 17 19 34 59 58 42 56 20 20 21 21 19 21 23 25 28 31 27 29 29 31 31
60 56 50 40 33 32 31 29 25 23 22 24 22 18 14 31 16 8 13 11 10 12 18 18 18 30 37 41 37 36 21 21 20 20 21 20 24 28 28 26 25 26 27 30 30
54 49 45 42 34 30 30 27 23 22 23 23 21 19 41 19 5 8 9 10 11 15 15 15 14 26 54 40 43 24 21 20 22 29 20 22 24 25 26 24 26 27 30 30 31
44 40 40 38 38 30 28 26 22 20 23 20 18 25 30 18 6 12 10 12 12 12 13 13 19 26 28 37 28 41 52 25 26 27 26 22 29 29 25 24 27 28 26 26 29
51 58 47 35 36 30 26 24 20 19 24 18 14 40 34 5 5 5 6 10 13 13 11 17 16 20 28 25 32 37 52 56 31 28 34 39 42 29 24 26 29 26 25 29 33
75 65 54 34 32 29 25 21 18 18 27 22 30 39 19 6 6 5 5 6 10 12 11 15 18 34 37 51 50 53 79 52 36 28 34 38 40 28 25 26 29 30 32 32 36
80 71 57 34 29 27 24 19 19 26 30 43 37 30 20 11 4 4 4 4 9 11 12 22 29 39 53 46 70 73 78 58 43 34 33 40 36 27 26 26 30 31 34 34 37
80 71 57 36 25 25 26 21 39 40 29 24 17 19 8 6 5 3 3 4 9 11 16 20 32 40 35 36 46 36 56 56 34 30 34 38 33 30 26 26 31 33 35 37 36
77 67 61 35 22 21 28 41 27 18 24 18 18 14 9 6 6 4 3 8 12 16 14 16 24 19 26 29 33 32 42 30 20 28 28 41 35 31 29 28 29 31 34 36 36
72 64 61 36 20 24 33 26 16 16 23 18 14 13 9 6 6 4 5 9 12 15 15 19 17 14 16 23 27 27 30 27 29 30 26 32 38 36 29 27 27 27 29 30 32
72 65 59 46 27 34 29 19 17 15 32 19 13 10 7 6 8 5 6 9 12 14 14 15 15 17 18 18 19 33 21 27 39 62 82 50 57 40 35 33 28 29 28 29 31
65 60 58 56 62 49 22 19 18 18 41 8 9 5 5 6 5 5 4 8 13 13 12 15 14 16 14 14 18 24 27 34 47 78 81 44 42 42 37 37 33 30 28 26 27
61 58 61 48 63 28 29 24 25 34 29 8 6 6 6 6 6 5 6 7 9 12 12 12 9 13 11 10 16 20 26 37 49 72 87 46 38 44 40 34 31 26 24 22 25
55 56 63 86 50 27 21 25 35 39 10 9 7 6 6 6 6 6 8 11 14 18 17 13 11 10 9 13 18 25 41 57 55 69 54 38 40 40 28 27 25 24 24 20 22
58 46 29 34 19 23 29 36 46 19 17 6 6 6 6 6 6 6 10 13 11 12 15 18 18 11 10 11 26 33 40 48 67 87 45 40 27 25 19 20 19 20 20 20 17
59 51 46 31 18 32 38 43 32 21 10 8 7 7 7 6 7 8 10 11 10 10 15 17 17 10 9 11 18 28 45 38 74 60 59 36 19 17 17 18 18 17 17 20 20
88 69 43 27 29 32 42 42 24 17 14 14 11 7 7 6 7 9 12 10 9 8 9 12 18 12 9 9 18 18 29 50 77 48 48 26 26 29 21 20 18 18 17 17 18
81 56 30 21 28 32 39 33 22 17 17 18 16 14 7 6 6 7 12 9 8 8 8 9 11 14 10 12 18 19 27 34 46 36 65 38 33 26 25 20 18 17 15 17 20
59 54 18 21 35 33 32 25 23 15 13 15 15 14 12 6 6 7 10 9 6 6 8 8 9 15 13 10 9 13 16 26 52 28 34 39 27 16 18 16 18 18 19 21 22
70 48 26 19 35 34 28 22 16 15 14 15 16 13 9 6 9 7 7 7 6 6 9 8 12 15 14 11 10 13 19 32 35 26 29 28 26 15 18 22 23 25 27 30 30
68 56 82 52 36 26 24 22 20 12 12 13 14 12 11 11 6 9 7 6 5 6 21 11 8 14 22 16 14 20 19 20 26 36 31 25 22 18 16 23 26 29 32 43 49
63 60 82 83 48 38 29 21 20 16 12 13 16 11 11 13 12 9 7 7 5 13 17 9 10 13 18 14 13 14 19 17 20 22 27 20 19 20 23 26 30 42 50 53 57
63 65 83 79 63 57 50 31 28 23 14 14 17 9 10 14 19 9 8 10 8 10 11 7 14 20 21 15 16 15 15 15 15 15 21 17 22 24 28 30 44 50 49 54 56
54 50 76 85 63 62 43 24 22 19 14 11 11 13 12 23 19 18 9 8 8 10 10 9 12 31 24 22 21 15 11 15 16 16 17 24 25 23 35 43 48 48 50 56 61